www.pogodaiklimat.ru

Погода и климат >> Архив погоды >> Кувейт >> Эль-Кувейт


АРХИВ ПОГОДЫ в Эль-Кувейте

Время (UTC), дата Ветер
(напр.,м/с)
 
Видим.   Явления Облачность Т
(С)
Тd
(С)
f
(%)
Тe
(С)
Тes
(С)
Комфортность P
(гПа)
Po
(гПа)
Тmin
(С)
Tmax
(С)
R
(мм)
R24
(мм)
S
(см)
06 17.02 З 2-3
{3}
7000 м мгла ясно +14.1 +5.1 55 +14 +20 по сезону 1022.1 1016.3 172
09 17.02 С 4-7
{7}
10 км ясно +19.6 +3.0 33 +20 +28 тепло 1020.8 1015.1 346
12 17.02 С 5-9
{11}
10 км 4/4 1200 м
[Cu hum]
+21.1 +2.2 29 +21 +23 комфорт 1018.3 1012.6 251
15 17.02 С 4-6
{11}
8000 м мгла 4/4 1200 м
[Cu hum]
+19.4 +2.1 32 +20 +20 тепло 1018.1 1012.4 9
18 17.02 С 4-5
{11}
10 км 4/0 2000 м
[Ac trans]
+16.9 +4.3 43 +17 +17 тепло 1019.2 1013.5
21 17.02 З 2-2
{5}
10 км 3/0
[Ac trans]
+11.1 +6.4 73 +10 +10 по сезону 1019.0 1013.1 +7.5 +21.2
00 18.02 ЮЗ 2-2
{5}
10 км ясно +9.6 +7.0 84 +8 +8 по сезону 1018.3 1012.4
03 18.02 С 2-2
{2}
10 км ясно +8.7 +5.7 81 +7 +7 холодно 1018.1 1012.2
06 18.02 З 2-2
{2}
6000 м мгла ясно +15.7 +8.7 63 +16 +23 тепло 1018.8 1013.0 172
09 18.02 С 2-6
{6}
10 км ясно +19.8 +3.4 34 +21 +34 комфорт 1017.4 1011.7 342
12 18.02 СЗ 4-6
{10}
10 км 3/0
[Ac trans]
+21.0 +1.8 28 +21 +24 комфорт 1014.2 1008.6 251
15 18.02 С 3-5
{8}
10 км 4/0
[Ac trans]
+18.7 +2.0 33 +19 +19 тепло 1013.5 1007.8 4
18 18.02 Ю 2-3
{8}
10 км 5/3 1200 м
[Sc diur, vesp Ac trans]
+15.1 +8.2 63 +15 +15 по сезону 1014.6 1008.8
21 18.02 Ю 2-4
{4}
10 км 4/3 1200 м
[Sc diur, vesp Ac trans]
+11.9 +7.7 75 +11 +11 по сезону 1013.8 1008.0 +7.2 +21.5
00 19.02 штиль 0-2
{5}
10 км 6/3 1200 м
[Sc diur, vesp Ac trans]
+11.9 +8.7 81 +11 +11 по сезону 1013.5 1007.7
03 19.02 С 2-2
{3}
7000 м мгла 6/3 1200 м
[Sc diur, vesp Ac trans]
+14.1 +9.0 71 +14 +14 тепло 1013.6 1007.8
06 19.02 С 5-7
{10}
6000 м в посл. час дождь {морось} 10/4 1200 м
[Sc diur, vesp Ac As]
+15.3 +8.4 63 +14 +15 по сезону 1014.9 1009.1 79
09 19.02 С 6-11
{11}
10 км 9/3 900 м
[Cu Sc Ac trans]
+17.4 +5.2 45 +17 +18 по сезону 1015.6 1009.9 199
12 19.02 С 8-11
{12}
10 км 5/3 1200 м
[Sc diur, vesp Ac trans]
+18.7 +3.4 36 +18 +19 прохладно 1014.9 1009.2 219
15 19.02 С 6-8
{11}
10 км 4/0 2000 м
[Ac trans]
+17.4 +3.3 39 +17 +17 по сезону 1016.2 1010.5 8
18 19.02 С 5-7
{11}
10 км ясно +15.7 +4.7 48 +15 +15 по сезону 1018.5 1012.7
21 19.02 З 2-3
{6}
10 км ясно +10.2 +5.3 72 +9 +9 прохладно 1019.1 1013.2 +10.1 +19.1
00 20.02 З 2-2
{6}
10 км ясно +9.0 +5.1 77 +8 +8 по сезону 1019.0 1013.1
03 20.02 З 3-3
{3}
10 км ясно +7.1 +4.2 82 +4 +4 очень
холодно
1019.8 1013.8
06 20.02 СЗ 3-4
{4}
10 км 3/0
[Ci fib]
+14.4 +4.5 51 +14 +20 по сезону 1021.4 1015.6 179
09 20.02 С 4-5
{6}
10 км 3/0
[Ci fib]
+19.0 +4.4 38 +19 +28 тепло 1020.8 1015.1 349
12 20.02 С 5-8
{11}
10 км 1/0
[Ci fib]
+20.5 +2.5 30 +21 +23 комфорт 1019.1 1013.4 256
15 20.02 С 4-5
{9}
10 км ясно +18.7 +2.3 33 +19 +19 тепло 1019.3 1013.6 10
18 20.02 З 2-3
{9}
10 км ясно +12.7 +4.9 59 +12 +12 прохладно 1020.9 1015.1
21 20.02 ЮЗ 2-2
{2}
7000 м мгла ясно +12.4 +2.4 50 +12 +12 по сезону 1021.2 1015.4 +7.1 +21.0
00 21.02 Ю 2-2
{3}
10 км ясно +8.4 +6.3 87 +6 +6 прохладно 1020.9 1015.0
03 21.02 Ю 4-3
{3}
10 км ясно +6.7 +5.6 93 +3 +3 очень
холодно
1021.5 1015.5
06 21.02 штиль 0-2
{3}
8000 м мгла ясно +15.1 +5.8 54 +15 +24 по сезону 1023.4 1017.6 178
09 21.02 СЗ 2 10 км 3/0
[Ci fib]
+20.1 +1.8 30 +21 +35 комфорт 1021.7 1016.0
12 21.02 В 4-6
{7}
10 км 3/0
[Ci fib]
+20.7 +3.7 33 +21 +25 комфорт 1019.7 1014.0 251
15 21.02 ЮВ 4-5
{7}
10 км 3/0
[Ac trans]
+17.4 +5.9 47 +17 +17 по сезону 1020.0 1014.3 9
18 21.02 штиль 0-3
{7}
10 км 3/0
[Ac trans]
+13.0 +9.6 80 +13 +13 по сезону 1021.3 1015.5
21 21.02 штиль 0-1
{3}
5000 м дымка 3/0
[Ac trans]
+11.3 +10.3 94 +11 +11 по сезону 1020.7 1014.8 +6.4 +22.0
00 22.02 штиль 0-1
{3}
4000 м дымка 3/0
[Ac trans]
+11.0 +8.3 83 +10 +10 по сезону 1019.3 1013.4
03 22.02 Ю 3-4
{4}
7000 м мгла 4/0
[Ac trans]
+9.6 +7.8 89 +7 +7 холодно 1019.8 1013.9
06 22.02 Ю 2-3
{4}
7000 м мгла 4/0
[Ac trans]
+15.9 +11.2 74 +16 +21 тепло 1021.4 1015.6 126
09 22.02 ЮВ 4-7
{7}
10 км 4/1 1200 м
[Sc diur, vesp Ac trans]
+21.1 +3.5 31 +21 +28 комфорт 1019.0 1013.3 292
12 22.02 ЮВ 4-6
{8}
10 км 9/4 1200 м
[Sc Ac As]
+19.0 +4.2 38 +19 +20 прохладно 1017.3 1011.6 66
15 22.02 ЮВ 5-8
{8}
10 км 9/4 1200 м
[Sc Ac As]
+17.2 +7.5 53 +17 +17 по сезону 1017.2 1011.5 3
18 22.02 ЮВ 4-6
{8}
30 км н/о +15.8 +9.4 66 +15 +15 по сезону 1018.3 1012.5
21 22.02 ЮВ 2-3
{8}
10 км 5/0
[Ci fib]
+14.7 +10.3 75 +15 +15 тепло 1017.9 1012.1 +7.0 +22.6
00 23.02 В 2-2
{8}
7000 м дымка 4/0 2000 м
[Ac trans]
+14.0 +11.2 83 +14 +14 тепло 1017.2 1011.4
03 23.02 В 3-4
{5}
4000 м дымка 4/3 1200 м
[Sc diur, vesp Ac trans]
+14.6 +13.0 90 +14 +14 по сезону 1017.7 1011.9
06 23.02 ЮВ 6-8
{9}
6000 м в посл. час дождь 8/3 1200 м
[Sc Ac As]
+17.9 +11.9 68 +17 +18 тепло 1018.5 1012.8 99
09 23.02 ЮВ 7 7000 м мгла 4/3 1200 м
[Sc Ac trans]
+20.5 +12.3 59 +22 +25 комфорт 1017.3 1011.6
12 23.02 ЮВ 6-10
{12}
8000 м мгла 3/0
[Ci fib]
+20.8 +11.9 57 +23 +25 комфорт 1015.4 1009.7 246
15 23.02 ЮВ 5-8
{10}
8000 м мгла ясно +18.1 +13.1 73 +18 +18 по сезону 1015.6 1009.9 8
18 23.02 ЮВ 3-5
{10}
8000 м дымка ясно +16.7 +14.5 87 +17 +17 тепло 1016.7 1011.0
21 23.02 штиль 0-2
{4}
2000 м дымка ясно +14.2 +13.6 96 +14 +14 по сезону 1016.8 1011.0 +13.6 +21.4
00 24.02 штиль 0-1
{4}
<100 м туман ясно +11.4 +11.2 99 +11 +11 по сезону 1016.2 1010.4
03 24.02 штиль 0-1
{3}
<100 м туман ясно +14.2 +13.1 93 +14 +14 по сезону 1016.7 1010.9

 

Местоположение метеостанции Эль-Кувейт (Кувейт): широта 29.22 долгота 47.97 высота над уровнем моря 48 м.

В архиве по умолчанию представлена погода в Эль-Кувейте за последнюю неделю. Архивные данные за месяц целиком и за предыдущие месяцы, начиная с января 2011 года, Вы можете получить, выбрав интересующий диапазон дат из раскрывающегося списка и нажав кнопку "Ввод!".


*Определитесь, кто Вы:
робот инопланетянин человек

Внимание! Время в таблицах - всемирное. Для получения местного времени необходимо прибавить поправку, которая равна 3 ч.

Смотрите также архив погоды в соседних городах и на ближайших метеорологических станциях:

Погода на Экспериментальной ферме (Кувейт) (8 км)
Погода в Кувейт Сити (Кувейт) (14 км)
Погода в Аль-Шуаиба (Кувейт) (19 км)
Погода в Сулайбии (Кувейт) (25 км)
Погода в Эль-Джахра (Кувейт) (31 км)
Погода Остров Файлака (Кувейт) (41 км)
Погода в Минагише (Кувейт) (46 км)
Погода в Порту Juluiah (Кувейт) (49 км)
Погода на Метеостанции Jal Aliyah (Кувейт) (58 км)
Погода на Метеостанции Sabriyah (Кувейт) (60 км)

Пояснения к столбцам:

Ветер - указаны скорость ветра в м/с - средняя за 10 мин, порывы в срок и между сроками (в фигурных скобках) и направление, откуда дует ветер: С - северный, СВ - северо-восточный, В - восточный, ЮВ - юго-восточный, Ю - южный, ЮЗ - юго-западный, З - западный, СЗ - северо-западный.
Видимость - горизонтальная дальность видимости в метрах или километрах. При видимости от 1 до 10 км при отсутствии осадков обычно наблюдается дымка, при ухудшении видимости до 1 км и менее - туман. В сухую погоду видимость может ухудшаться дымом, пылью или мглою.
Явления - указаны атмосферные явления, наблюдавшиеся в срок или в последний час перед сроком; фигурными скобками обозначены явления, наблюдавшиеся между сроками (за 1-3 часа до срока); квадратными скобками обозначены град или гололедные отложения с указанием их диаметра в мм.
Облачность - указаны через наклонную черту общая и нижняя облачность в баллах и высота нижней границы облаков в метрах; квадратными скобками обозначены формы облаков: Ci - перистые, Cs - перисто-слоистые, Cc - перисто-кучевые, Ac - высококучевые, As - высокослоистые, Sc - слоисто-кучевые, Ns - слоисто-дождевые, Cu - кучевые, Cb - кучево-дождевые. Подробнее классификацию облаков см. в Атласе облаков (PDF).
T - Температура воздуха - температура, измеренная на высоте 2 м над землей.
Td - Температура точки росы - температура, при понижении до которой содержащийся в воздухе водяной пар достигнет насыщения.
f - Относительная влажность воздуха - влажноcть воздуха, измеренная на высоте 2 м над землей.
Te - Эффективная температура - температура, которую ощущает одетый по сезону человек в тени. Характеристика душности погоды. При расчете учитывается влияние влажности воздуха и скорости ветра на теплоощущения человека.
Tes - Эффективная температура на солнце - температура, которую ощущает человек, с поправкой на солнечный нагрев. Характеристика знойности погоды. Зависит от высоты солнца над горизонтом, облачности и скорости ветра. Ночью, в пасмурную погоду, а также при ветре 12 м/с и более поправка равна нулю.
P - Атмосферное давление - приведенное к уровню моря атмосферное давление.
Po - Атмосферное давление - измеренное на уровне метеостанции атмосферное давление.
Tmin - Минимальная температура - минимум температуры воздуха на высоте 2 м над землей.
Tmax - Максимальная температура - максимум температуры воздуха на высоте 2 м над землей.
R - Количество осадков - Количество выпавших осадков за период времени, мм. При наведении курсора мыши на число - период времени, за который выпало указанное количество осадков.
R24 - Количество осадков - Количество выпавших осадков за 24 часа, мм.
S - Снежный покров - Высота снежного покрова, см. При наведении курсора мыши на число - состояние снежного покрова и степень покрытия местности в баллах.